Sydney, Australia

8:18 PM AEDT on February 21, 2017 (GMT +1100)
Kingsford Smith International

Weather History for YSSY - August, 2014

Change the Weather History Date:

Saturday, August 9, 2014

  Actual Average Record
Temperature  
Mean Temperature 58 °F -  
Max Temperature 69 °F 66 °F 75 °F (2007)
Min Temperature 47 °F 47 °F 39 °F (1996)
Degree Days  
Heating Degree Days 7    
Growing Degree Days 8 (Base 50)    
Moisture  
Dew Point 47 °F    
Average Humidity 70    
Maximum Humidity 100    
Minimum Humidity 26    
Precipitation  
Precipitation 0.00 in 0.11 in - ()
Sea Level Pressure  
Sea Level Pressure 30.33 in    
Wind  
Wind Speed 8 mph ()    
Max Wind Speed 13 mph    
Max Gust Speed -    
Visibility 4.5 miles    
Events Fog    
Averages and records for this station are not official NWS values.
T = Trace of Precipitation, MM = Missing Value Source: Averaged Metar Reports

Daily Weather History Graph

Daily Weather History Graph

Search for Another Location

Airport or City:

Trip Planner

Search our weather history database for the weather conditions in past years. The results will help you decide how hot, cold, wet, or windy it might be!

Date:

Astronomy

Aug. 09, 2014 Rise Set
Actual Time 6:41 AM AEST 5:21 PM AEST
Civil Twilight 6:15 AM AEST 5:47 PM AEST
Nautical Twilight 5:45 AM AEST 6:16 PM AEST
Astronomical Twilight 5:16 AM AEST 6:46 PM AEST
Moon 3:43 PM AEST (8/9) 4:49 AM AEST (8/9)
Length of Visible Light 11h 32m
Length of Day
10h 39m
Waxing Gibbous, 96% of the Moon is Illuminated
Aug 9
Waxing Gibbous
Aug 11
Full
Aug 17
Last Quarter
Aug 26
New
Sep 2
First Quarter

Hourly Weather History & Observations

Time (AEST) Temp. Windchill Dew Point Humidity Pressure Visibility Wind Dir Wind Speed Gust Speed Precip Events Conditions
12:00 AM 53 °F - 49 °F 80% 30.43 in 11 mi North 8.1 mph - -   Haze
12:00 AM 53.6 °F - 48.2 °F 82% 30.42 in 6.2 mi North 8.1 mph - N/A   Partly Cloudy
12:30 AM 51.8 °F - 48.2 °F 88% 30.42 in 6.2 mi NNW 6.9 mph - N/A   Partly Cloudy
1:00 AM 51 °F - 48 °F 85% 30.43 in - North 8.1 mph - -  
1:00 AM 51.8 °F - 48.2 °F 88% 30.42 in 6.2 mi North 8.1 mph - N/A   Partly Cloudy
1:30 AM 51.8 °F - 48.2 °F 88% 30.42 in 6.2 mi NNW 9.2 mph - N/A   Partly Cloudy
2:00 AM 51 °F - 48 °F 85% 30.41 in - North 6.9 mph - -  
2:00 AM 50.0 °F - 48.2 °F 94% 30.39 in 6.2 mi North 6.9 mph - N/A   Partly Cloudy
2:30 AM 51.8 °F - 48.2 °F 88% 30.39 in 6.2 mi North 8.1 mph - N/A   Partly Cloudy
3:00 AM 51 °F - 47 °F 82% 30.40 in 7 mi North 8.1 mph - -   Haze
3:00 AM 50.0 °F - 46.4 °F 87% 30.39 in - North 8.1 mph - N/A   Clear
3:30 AM 50.0 °F - 46.4 °F 87% 30.39 in - NNW 6.9 mph - N/A   Clear
4:00 AM 49 °F - 46 °F 87% 30.40 in - NNW 5.8 mph - -  
4:00 AM 48.2 °F - 46.4 °F 93% 30.39 in - NNW 5.8 mph - N/A   Clear
4:30 AM 50.0 °F - 46.4 °F 87% 30.39 in - NNW 8.1 mph - N/A   Clear
5:00 AM 48 °F - 46 °F 89% 30.39 in - NNW 6.9 mph - -  
5:00 AM 48.2 °F - 46.4 °F 93% 30.39 in 5.0 mi NNW 6.9 mph - N/A   Unknown
5:18 AM 48.2 °F - 46.4 °F 93% 30.39 in 3.7 mi NNW 5.8 mph - N/A   Unknown
5:30 AM 48.2 °F - 46.4 °F 93% 30.39 in 3.1 mi NNW 6.9 mph - N/A   Mist
5:38 AM 48.2 °F - 46.4 °F 93% 30.39 in 0.3 mi North 6.9 mph - N/A Fog Fog
5:51 AM 48.2 °F - 46.4 °F 93% 30.39 in 0.3 mi North 9.2 mph - N/A Fog Fog
5:53 AM 48.2 °F - 46.4 °F 93% 30.39 in 0.3 mi NNW 9.2 mph - N/A Fog Fog
6:00 AM 48 °F - 47 °F 94% 30.40 in 0 mi NNW 9.2 mph - - Fog Partial Fog
6:00 AM 48.2 °F - 46.4 °F 93% 30.39 in 0.2 mi NNW 9.2 mph - N/A Fog Fog
6:21 AM 46.4 °F 41.9 °F 46.4 °F 100% 30.39 in 0.2 mi NNW 9.2 mph - N/A Fog Fog
6:30 AM 48.2 °F - 46.4 °F 93% 30.39 in 0.2 mi NNW 8.1 mph - N/A Fog Fog
7:00 AM 48 °F - 47 °F 93% 30.41 in - NNW 9.2 mph - -  
7:00 AM 48.2 °F - 46.4 °F 93% 30.39 in 0.2 mi NNW 9.2 mph - N/A Fog Fog
7:30 AM 48.2 °F - 46.4 °F 93% 30.42 in 0.2 mi NNW 8.1 mph - N/A Fog Fog
8:00 AM 49 °F - 47 °F 88% 30.41 in - NNW 8.1 mph - -  
8:00 AM 50.0 °F - 46.4 °F 87% 30.39 in 0.3 mi NNW 8.1 mph - N/A Fog Fog
8:30 AM - - - N/A% 30.39 in 0.6 mi NNW 9.2 mph - N/A Fog Fog
9:00 AM 52 °F - 48 °F 82% 30.41 in 1 mi NW 8.1 mph - -   Mist
9:30 AM 53.6 °F - 48.2 °F 82% 30.39 in 2.5 mi NW 8.1 mph - N/A   Mostly Cloudy
10:00 AM 58 °F - 49 °F 62% 30.40 in - NNW 8.1 mph - -  
10:00 AM 57.2 °F - 48.2 °F 72% 30.39 in 3.7 mi NNW 8.1 mph - N/A   Unknown
10:13 AM 59.0 °F - 48.2 °F 67% 30.39 in 5.6 mi NNW 8.1 mph - N/A   Unknown
10:30 AM 57.2 °F - 48.2 °F 72% 30.39 in 5.6 mi NW 6.9 mph - N/A   Unknown
11:00 AM 62 °F - 47 °F 48% 30.38 in - NW 9.2 mph - -  
11:00 AM 60.8 °F - 48.2 °F 63% 30.36 in 5.6 mi NW 9.2 mph - N/A   Unknown
11:30 AM 64.4 °F - 48.2 °F 56% 30.36 in - WNW 6.9 mph - N/A   Clear
12:00 PM 67 °F - 47 °F 38% 30.35 in 9 mi NW 6.9 mph - -   Haze
12:00 PM 66.2 °F - 46.4 °F 49% 30.33 in - NW 6.9 mph - N/A   Clear
12:30 PM 68.0 °F - 44.6 °F 43% 30.30 in - NNE 9.2 mph - N/A   Clear
1:00 PM 69 °F - 42 °F 26% 30.30 in - North 8.1 mph - -  
1:00 PM 68.0 °F - 42.8 °F 40% 30.30 in - North 8.1 mph - N/A   Clear
1:30 PM 69.8 °F - 41.0 °F 35% 30.27 in - North 3.5 mph - N/A   Clear
2:00 PM 67 °F - 44 °F 32% 30.27 in - East 4.6 mph - -  
2:00 PM 66.2 °F - 44.6 °F 46% 30.27 in - East 4.6 mph - N/A   Clear
2:30 PM 66.2 °F - 48.2 °F 52% 30.24 in - NE 11.5 mph - N/A   Clear
3:00 PM 68 °F - 49 °F 39% 30.25 in 12 mi NE 11.5 mph - -   Haze
3:00 PM 68.0 °F - 48.2 °F 49% 30.24 in - NE 11.5 mph - N/A   Clear
3:30 PM 66.2 °F - 50.0 °F 56% 30.24 in - NE 10.4 mph - N/A   Clear
4:00 PM 66 °F - 49 °F 45% 30.24 in - NE 11.5 mph - -  
4:00 PM 66.2 °F - 50.0 °F 56% 30.21 in - NE 11.5 mph - N/A   Clear
4:30 PM 64.4 °F - 50.0 °F 59% 30.21 in - NE 11.5 mph - N/A   Clear
5:00 PM 64 °F - 51 °F 53% 30.24 in - NE 12.7 mph - -  
5:00 PM 64.4 °F - 51.8 °F 64% 30.24 in - NE 12.7 mph - N/A   Clear
5:30 PM 64.4 °F - 51.8 °F 64% 30.21 in - NE 11.5 mph - N/A   Clear
6:00 PM 62 °F - 52 °F 62% 30.25 in 16 mi NE 11.5 mph - -   Partly Cloudy
6:00 PM 62.6 °F - 51.8 °F 68% 30.24 in - NE 11.5 mph - N/A   Clear
6:30 PM 60.8 °F - 53.6 °F 77% 30.24 in - NE 9.2 mph - N/A   Clear
7:00 PM 62 °F - 53 °F 63% 30.25 in - NNE 4.6 mph - -  
7:00 PM 62.6 °F - 53.6 °F 72% 30.24 in - NNE 4.6 mph - N/A   Clear
7:30 PM 60.8 °F - 53.6 °F 77% 30.24 in - North 5.8 mph - N/A   Clear
8:00 PM 60 °F - 51 °F 65% 30.25 in - North 5.8 mph - -  
8:00 PM 60.8 °F - 51.8 °F 72% 30.24 in - North 5.8 mph - N/A   Clear
8:30 PM 59.0 °F - 50.0 °F 72% 30.24 in - North 9.2 mph - N/A   Clear
9:00 PM 60 °F - 46 °F 49% 30.25 in 14 mi North 10.4 mph - -   Partly Cloudy
9:00 PM 59.0 °F - 46.4 °F 63% 30.24 in - North 10.4 mph - N/A   Clear
9:30 PM 59.0 °F - 42.8 °F 55% 30.24 in - NW 12.7 mph - N/A   Clear
10:00 PM 59 °F - 38 °F 34% 30.25 in - NNW 9.2 mph - -  
10:00 PM 59.0 °F - 39.2 °F 48% 30.24 in - NNW 9.2 mph - N/A   Clear
10:30 PM 57.2 °F - 39.2 °F 51% 30.24 in - NNW 8.1 mph - N/A   Clear
11:00 PM 57 °F - 40 °F 41% 30.25 in - NNW 6.9 mph - -  
11:00 PM 57.2 °F - 39.2 °F 51% 30.24 in - NNW 6.9 mph - N/A   Clear
11:30 PM 57.2 °F - 41.0 °F 55% 30.21 in - NNW 8.1 mph - N/A   Clear